THORAD DELTA 1 DEB, 8555

Orbit data source: Space-Track

THORAD DELTA 1 DEB, 8555 is space debris in SSO originally from a launch on Fri, 15 Nov 1974 UTC launched from the Air Force Western Test Range (AFWTR). Debris objects in space refer to the collection of defunct objects orbiting the Earth. Examples of debris include non-operational satellites, rocket bodies, and fragments generated from explosions, collisions, or faulty payload assembly.

Loading next visibility...
Identifier
8555, 1974-089CS
Orbit
SSO
Country
Flag of USUS
Related business
Manufacturer
Unknown
Mission
Spacecraft
Bus & Motor
Unknown
Mass
Unknown
Launch date (UTC)
1974-11-15 (51 years ago)
Launch vehicle
Unknown
Launch site
Air Force Western Test Range (AFWTR)
Object type
Payload
Rocket body
Debris
Shape & HBR
Unknown shape, 0.1 m
Radar Cross Section
Small (<0.1 m²)

Expand to show TLE details & history
Last TLE update: 13 hours ago

TLE from 13 hours ago
0 THORAD DELTA 1 DEB
1  8555U 74089CS  25353.56218997  .00000757  00000-0  48229-2 0  9992
2  8555 101.4021 111.3384 0058539  27.1203 348.1390 12.56061845330877
Epoch: 2025-12-19T13:29Z
TLE epoch observation values (Epoch: 2025-12-19T13:29:33.213Z)
Latitude
14.79293°
Longitude
177.5107°
Altitude
1,396.359 km
Speed
7.183 km/s
True Right ascension
07h 13m 12s
True Declination
14° 42' 55"
Sunlit
Object was in full shadow at epoch
Visualization orbit readout
Latitude
Unknown
Longitude
Unknown
Altitude
Unknown
Speed
Unknown
Apparent Right ascension
Unknown
Apparent Declination
Unknown
Sunlit
N/A
Visualization observer readout
Local Sidereal Time
01:28:35
Azimuth
Unknown
Elevation
Unknown
Doppler factor
Unknown
Orbital elements
Apogee altitude
1,482.508 km
Perigee altitude
1,391.013 km
Semi-major axis
7,814.897 km
Eccentricity
0.00585
Inclination
101.4021°
RAAN
111.3384°
Arg. of periapsis
27.1203°
True anomaly
348.00013°
Mean anomaly
348.139°
Eccentric anomaly
348.06966°
Mean motion
3.14165 °/min
Orbital period
114.59 mins
BSTAR
0.0048229
Loading maneuver chart data...
Computing Atmospheric mass density...

Documentation

Showing up to 5 results
|